Location: Borovka
(49.7741°N, 14.5280°E)
Time: 17:18:44
(UTC+00:00)

NOAA 15 - Visible Passes

Search period start: 14 March 2026 00:00
Search period end: 24 March 2026 00:00
Orbit: 795 x 808 km, 98.5° (Epoch: 14 March)

Date Brightness Start Highest point End Pass type
(mag) Time Alt. Az. Time Alt. Az. Time Alt. Az.
14 Mar 6.3 18:04:06 10° SSW 18:08:58 37° W 18:13:53 10° NNW visible
15 Mar 5.3 17:37:23 10° S 17:42:36 60° WSW 17:47:52 10° NNW visible
16 Mar 7.5 18:53:37 10° SW 18:56:45 16° W 18:59:55 10° NW visible
17 Mar 7.0 18:25:51 10° SSW 18:30:12 25° W 18:34:34 10° NW visible
18 Mar 6.1 17:58:47 10° SSW 18:03:44 40° W 18:08:45 10° NNW visible
19 Mar 8.0 19:17:43 10° W 19:18:09 10° W 19:18:34 10° WNW visible
20 Mar 7.5 18:48:03 10° SW 18:51:29 17° W 18:54:58 10° NW visible
21 Mar 6.9 18:20:27 10° SSW 18:24:57 28° W 18:29:29 10° NW visible
22 Mar 6.0 17:53:28 10° S 17:58:31 44° W 18:03:36 10° NNW visible
23 Mar 7.8 19:11:13 10° WSW 19:12:51 11° W 19:14:31 10° WNW visible
